STARLINK-2266, 47997

Orbit data source: Space-Track

STARLINK-2266, 47997 is a payload satellite owned by SpaceX/Seattle (US) in LEO that was launched on Wed, 24 Mar 2021 UTC via an FALCON 9 launch vehicle from the Air Force Eastern Test Range (AFETR). Payload-class satellites include a variety of spacecraft equipped with specific instruments for various scientific and technological missions. These include communications satellites like Starlink; space stations such as the ISS; scientific satellites like the Hubble; Earth observation satellites from companies like Planet Labs, Umbra, and HawkEye 360; GPS; miniature CubeSats for education and research; and military/defense satellites.

Loading next visibility...
Identifier
47997, 2021-024W
Orbit
LEO
Country
Flag of USUS
Related business
Manufacturer
SpaceX/Seattle
Mission
Operational Commercial Communications
Bus & Motor
STARLINK, Unknown motor
Mass
260 kg wet, ~248 kg dry
Launch date (UTC)
2021-03-24 (5 years ago)
Launch vehicle
FALCON 9
Launch site
Air Force Eastern Test Range (AFETR)
Object type
Payload
Rocket body
Debris
Shape & HBR
Box + 1 Pan, 10.1 m
Radar Cross Section
13.562 m², Large (>1 m²)

Expand to show TLE details & history
Last TLE update: 15 hours ago

TLE from 15 hours ago
0 STARLINK-2266
1 47997U 21024W   25346.73289624  .00008282  00000-0  57420-3 0  9997
2 47997  53.0544 341.9829 0001884  72.2477 287.8717 15.06402035261808
Epoch: 2025-12-12T17:35Z
TLE epoch observation values (Epoch: 2025-12-12T17:35:22.235Z)
Latitude
-0.00004°
Longitude
-3.53007°
Altitude
547.684 km
Speed
7.59 km/s
True Right ascension
22h 47m 55s
True Declination
0° 00' 00"
Sunlit
Object was in daylight at epoch
Visualization orbit readout
Latitude
Unknown
Longitude
Unknown
Altitude
Unknown
Speed
Unknown
Apparent Right ascension
Unknown
Apparent Declination
Unknown
Sunlit
N/A
Visualization observer readout
Local Sidereal Time
07:26:33
Azimuth
Unknown
Elevation
Unknown
Doppler factor
Unknown
Orbital elements
Apogee altitude
548.781 km
Perigee altitude
546.171 km
Semi-major axis
6,925.613 km
Eccentricity
0.00019
Inclination
53.0544°
RAAN
341.9829°
Arg. of periapsis
72.2477°
True anomaly
287.85115°
Mean anomaly
287.8717°
Eccentric anomaly
287.86143°
Mean motion
3.76579 °/min
Orbital period
95.6 mins
BSTAR
0.0005742
Loading maneuver chart data...
Computing Atmospheric mass density...

Documentation

Showing up to 5 results
|